Location: Newark
(7.0858°N, 171.3717°E)
Time: 17:34:11
(UTC+00:00)

Altair - Pass Details

Date: 01 December 2020
Orbit: 1501 x 1682 km, 47.2° (Epoch: 20 January)

Event Time Altitude Azimuth Distance (km) Brightness Sun altitude
Exits shadow 16:07:53 45° 6° (N) 2,003 7.9 -34.1°
Maximum altitude 16:10:17 54° 49° (NE) 1,818 7.9 -33.5°
Drops below altitude 10° 16:19:32 10° 124° (SE) 3,787 10.4 -31.4°
Sets 16:22:47 0° 128° (SE) 4,799 11.1 -30.7°
